CW5306 Weather Reports


time (UTC)temp
C
wind
direction
speed
KPH
gust
KPH
rain 1hr
cm
rain 24hr
cm
rain mn
cm
humidity
%
barometer
mb
20260507170010 22 49 0.0 0.0 0.00 0.00 0.00 89 1019.2
20260507165742 21 271 0.0 0.0 0.00 0.00 0.00 89 1019.0
20260507165242 21 272 0.0 0.0 0.00 0.00 0.00 89 1018.6
20260507164510 21 271 0.0 0.0 0.00 0.00 0.00 89 1018.7
20260507163959 21 272 0.0 0.0 0.00 0.00 0.00 89 1018.7
20260507163730 21 272 0.0 0.0 0.00 0.00 0.00 89 1018.7
20260507163000 20 271 0.0 0.0 0.00 0.00 0.00 89 1018.6
20260507162458 20 271 0.0 0.0 0.00 0.00 0.00 89 1018.2
20260507162230 20 271 0.0 0.0 0.00 0.00 0.00 89 1018.6
20260507161458 20 273 0.0 0.0 0.00 0.00 0.00 89 1018.0
20260507161229 20 272 0.0 0.0 0.00 0.00 0.00 89 1018.2
20260507160459 20 272 0.0 0.0 0.00 0.00 0.00 89 1018.0
20260507160218 20 272 0.0 0.0 0.00 0.00 0.00 89 1018.2
20260507155435 20 272 0.0 0.0 0.00 0.00 0.00 89 1018.1
20260507155212 20 272 0.0 0.0 0.00 0.00 0.00 89 1018.1
20260507154935 20 273 0.0 0.0 0.00 0.00 0.00 89 1017.8
20260507153935 20 272 0.0 0.0 0.00 0.00 0.00 89 1017.8
20260507153434 20 272 0.0 0.0 0.00 0.00 0.00 89 1017.9
20260507152934 20 272 0.0 0.0 0.00 0.00 0.00 89 1017.9
20260507152434 20 272 0.0 0.0 0.00 0.00 0.00 89 1017.9
20260507151935 20 272 0.0 0.0 0.00 0.00 0.00 89 1017.8
20260507151423 20 271 0.0 0.0 0.00 0.00 0.00 89 1017.6
20260507150924 20 272 0.0 0.0 0.00 0.00 0.00 89 1017.6
20260507150424 20 272 0.0 0.0 0.00 0.00 0.00 89 1017.5
20260507145910 20 272 0.0 0.0 0.00 0.00 0.00 88 1017.4
20260507145641 20 272 0.0 0.0 0.00 0.00 0.00 88 1017.6
20260507145142 20 271 0.0 0.0 0.00 0.00 0.00 88 1017.5
20260507144410 20 271 0.0 0.0 0.00 0.00 0.00 88 1017.4
20260507143911 20 272 0.0 0.0 0.00 0.00 0.00 88 1017.4
20260507143411 20 272 0.0 0.0 0.00 0.00 0.00 88 1017.1
20260507142911 20 272 0.0 0.0 0.00 0.00 0.00 88 1017.5
20260507142411 20 272 0.0 0.0 0.00 0.00 0.00 88 1017.4
20260507141911 20 272 0.0 0.0 0.00 0.00 0.00 88 1017.2
20260507141411 20 272 0.0 0.0 0.00 0.00 0.00 88 1017.6
20260507140911 20 271 0.0 0.0 0.00 0.00 0.00 88 1017.5
20260507140411 20 272 0.0 0.0 0.00 0.00 0.00 88 1017.4
20260507135911 20 272 0.0 0.0 0.00 0.00 0.00 88 1017.4
20260507135411 20 271 0.0 0.0 0.00 0.00 0.00 88 1017.5
20260507134910 20 271 0.0 0.0 0.00 0.00 0.00 88 1017.4
20260507134410 20 271 0.0 0.0 0.00 0.00 0.00 88 1017.2
20260507133910 20 272 0.0 0.0 0.00 0.00 0.00 88 1017.4
20260507133410 20 271 0.0 0.0 0.00 0.00 0.00 88 1017.4
20260507132910 20 271 0.0 0.0 0.00 0.00 0.00 87 1017.1
20260507132406 20 271 0.0 0.0 0.00 0.00 0.00 87 1017.3
20260507132132 20 276 0.0 0.0 0.00 0.00 0.00 87 1017.2
20260507132006 21 275 0.0 0.0 0.00 0.00 0.00 87 1017.4
20260507130900 21 275 0.0 0.0 0.00 0.00 0.00 87 1017.5
20260507130402 21 275 0.0 0.0 0.00 0.00 0.00 87 1017.5
20260507125901 21 277 0.0 0.0 0.00 0.00 0.00 87 1017.5
20260507125402 21 277 0.0 0.0 0.00 0.00 0.00 87 1017.7
20260507124901 21 277 0.0 0.0 0.00 0.00 0.00 87 1017.8
20260507124400 21 277 0.0 0.0 0.00 0.00 0.00 87 1017.6
20260507123901 21 277 0.0 0.0 0.00 0.00 0.00 87 1017.4
20260507123401 21 278 0.0 0.0 0.00 0.00 0.00 87 1017.8
20260507123352 21 278 0.0 0.0 0.00 0.00 0.00 87 1018.0
20260507122349 21 284 0.0 0.0 0.00 0.00 0.00 87 1017.9
20260507121849 21 284 0.0 0.0 0.00 0.00 0.00 87 1017.8
20260507121325 21 284 0.0 0.0 0.00 0.00 0.00 87 1018.0
20260507120824 21 284 0.0 0.0 0.00 0.00 0.00 87 1017.9
20260507120324 21 284 0.0 0.0 0.00 0.00 0.00 87 1018.0
20260507120044 21 284 0.0 0.0 0.00 0.00 0.00 87 1017.9
20260507115313 21 284 0.0 0.0 0.00 0.00 0.00 87 1018.0
20260507114814 21 319 0.0 0.0 0.00 0.00 0.00 87 1018.2
20260507114313 21 8 0.0 0.0 0.00 0.00 0.00 87 1018.0
20260507113813 21 254 0.0 0.0 0.00 0.00 0.00 87 1018.1
20260507113543 21 28 0.0 0.0 0.00 0.00 0.00 87 1018.3
20260507112813 21 8 0.0 0.0 0.00 0.00 0.00 86 1018.2
20260507112313 21 165 0.0 0.0 0.00 0.00 0.00 86 1018.3
20260507111812 21 165 0.0 0.0 0.00 0.00 0.00 86 1018.3
20260507111312 21 165 0.0 0.0 0.00 0.00 0.00 86 1018.3
20260507110812 21 165 0.0 0.0 0.00 0.00 0.00 86 1018.3
20260507110313 21 165 0.0 0.0 0.00 0.00 0.00 86 1018.5
20260507105813 21 164 0.0 0.0 0.00 0.00 0.00 85 1018.5
20260507105545 21 164 0.0 0.0 0.00 0.00 0.00 85 1018.6
20260507104813 21 164 0.0 0.0 0.00 0.00 0.00 85 1018.7
20260507104313 21 164 0.0 0.0 0.00 0.00 0.00 85 1018.4
20260507104046 21 164 0.0 0.0 0.00 0.00 0.00 85 1018.6
20260507103312 21 164 0.0 0.0 0.00 0.00 0.00 85 1018.6
20260507102812 21 164 0.0 0.0 0.00 0.00 0.00 85 1018.7
20260507102313 21 164 0.0 0.0 0.00 0.00 0.00 85 1018.5
20260507101813 21 164 0.0 0.0 0.00 0.00 0.00 85 1018.9
20260507101312 21 164 0.0 0.0 0.00 0.00 0.00 85 1018.9
20260507100814 21 164 0.0 0.0 0.00 0.00 0.00 85 1018.8
20260507100312 21 164 0.0 0.0 0.00 0.00 0.00 85 1018.9
20260507095812 21 164 0.0 0.0 0.00 0.00 0.00 85 1018.9
20260507095312 21 164 0.0 0.0 0.00 0.00 0.00 85 1018.8
20260507094813 21 164 0.0 0.0 0.00 0.00 0.00 85 1018.9
20260507094301 21 164 0.0 0.0 0.00 0.00 0.00 85 1019.0
20260507093801 21 164 0.0 0.0 0.00 0.00 0.00 85 1019.0
20260507093300 21 163 0.0 0.0 0.00 0.00 0.00 85 1019.0
20260507092800 21 163 0.0 0.0 0.00 0.00 0.00 86 1019.2
20260507092532 21 164 0.0 0.0 0.00 0.00 0.00 85 1018.9
20260507091802 21 45 0.0 0.0 0.00 0.00 0.00 86 1019.2
20260507091301 21 276 0.0 0.0 0.00 0.00 0.00 85 1019.1
20260507090750 21 271 0.0 0.0 0.00 0.00 0.00 84 1019.2
20260507090520 21 264 0.0 0.0 0.00 0.00 0.00 84 1019.3
20260507085748 21 262 0.0 0.0 0.00 0.00 0.00 84 1019.4
20260507085248 21 262 0.0 0.0 0.00 0.00 0.00 84 1019.1
20260507084748 21 262 0.0 0.0 0.00 0.00 0.00 85 1019.1
20260507084520 21 278 0.0 0.0 0.00 0.00 0.00 85 1019.1
20260507083749 21 278 0.0 0.0 0.00 0.00 0.00 85 1019.3
20260507083507 21 270 0.0 0.0 0.00 0.00 0.00 85 1019.2
20260507082736 21 279 0.0 0.0 0.00 0.00 0.00 84 1019.3
20260507082237 21 280 0.0 0.0 0.00 0.00 0.00 84 1019.1
20260507081724 21 287 0.0 0.0 0.00 0.00 0.00 83 1018.9
20260507081457 21 302 0.0 0.0 0.00 0.00 0.00 83 1019.0
20260507080712 21 244 0.0 0.0 0.00 0.00 0.00 83 1018.9
20260507080213 21 244 0.0 0.0 0.00 0.00 0.00 83 1019.0
20260507075712 21 244 0.0 0.0 0.00 0.00 0.00 83 1019.2
20260507075213 21 244 0.0 0.0 0.00 0.00 0.00 83 1019.0
20260507074932 21 244 0.0 0.0 0.00 0.00 0.00 83 1019.0
20260507074201 21 244 0.0 0.0 0.00 0.00 0.00 82 1018.9
20260507073702 22 244 0.0 0.0 0.00 0.00 0.00 82 1019.2
20260507073149 22 244 0.0 0.0 0.00 0.00 0.00 82 1019.0
20260507072651 22 243 0.0 0.0 0.00 0.00 0.00 81 1019.0
20260507072126 22 243 0.0 0.0 0.00 0.00 0.00 81 1018.9
20260507071626 22 244 0.0 0.0 0.00 0.00 0.00 80 1018.9
20260507071356 22 244 0.0 0.0 0.00 0.00 0.00 80 1018.8
20260507070625 22 270 0.0 0.0 0.00 0.00 0.00 79 1018.7
20260507070356 22 270 0.0 0.0 0.00 0.00 0.00 79 1018.7
20260507065856 22 270 0.0 0.0 0.00 0.00 0.00 79 1018.7
20260507065125 22 272 0.0 0.0 0.00 0.00 0.00 78 1018.4
20260507064613 22 272 0.0 0.0 0.00 0.00 0.00 78 1018.4
20260507064112 22 273 0.0 0.0 0.00 0.00 0.00 78 1018.2
20260507063613 23 272 0.0 0.0 0.00 0.00 0.00 77 1018.4
20260507063113 23 278 0.0 0.0 0.00 0.00 0.00 77 1018.2
20260507062613 23 277 0.0 0.0 0.00 0.00 0.00 76 1018.0
20260507062344 23 62 0.0 0.0 0.00 0.00 0.00 75 1017.9
20260507062219 23 62 0.0 0.0 0.00 0.00 0.00 75 1018.0
20260507061112 23 30 0.0 0.0 0.00 0.00 0.00 75 1017.9
20260507060844 23 8 0.0 0.0 0.00 0.00 0.00 74 1017.7
20260507060112 23 42 0.0 9.7 0.00 0.00 0.00 74 1017.7
20260507055613 23 40 0.0 9.7 0.00 0.00 0.00 74 1017.7
20260507055112 23 42 0.0 9.7 0.00 0.00 0.00 75 1017.6
20260507054843 23 38 0.0 1.6 0.00 0.00 0.00 75 1017.7
20260507054343 23 34 0.0 9.7 0.00 0.00 0.00 76 1017.5
20260507053613 23 52 0.0 9.7 0.00 0.00 0.00 74 1017.7
20260507053120 23 350 0.0 8.0 0.00 0.00 0.00 74 1017.5
20260507053114 23 37 0.0 8.0 0.00 0.00 0.00 75 1017.4
20260507052112 23 32 0.0 8.0 0.00 0.00 0.00 75 1017.3
20260507051612 23 51 0.0 14.5 0.00 0.00 0.00 74 1017.2
20260507051112 23 46 0.0 14.5 0.00 0.00 0.00 75 1017.4
20260507050612 23 42 0.0 12.9 0.00 0.00 0.00 76 1017.2
20260507050343 23 29 0.0 12.9 0.00 0.00 0.00 75 1017.3
20260507045613 23 35 0.0 9.7 0.00 0.00 0.00 75 1017.2
20260507045113 23 11 0.0 14.5 0.00 0.00 0.00 75 1017.3
20260507044613 23 24 0.0 14.5 0.00 0.00 0.00 75 1017.1
20260507044112 23 48 0.0 14.5 0.00 0.00 0.00 76 1017.1
20260507043612 23 54 0.0 14.5 0.00 0.00 0.00 75 1017.3
20260507043112 23 40 4.8 14.5 0.00 0.00 0.00 76 1017.0
20260507042612 23 354 8.0 12.9 0.00 0.00 0.00 76 1017.0
20260507042112 23 40 4.8 9.7 0.00 0.00 0.00 76 1016.8
20260507041613 23 37 0.0 16.1 0.00 0.00 0.00 75 1016.7
20260507041113 23 40 8.0 16.1 0.00 0.00 0.00 75 1016.7
20260507040844 23 38 0.0 16.1 0.00 0.00 0.00 75 1016.6
20260507040113 23 46 0.0 16.1 0.00 0.00 0.00 75 1016.5
20260507035612 23 46 0.0 14.5 0.00 0.00 0.00 74 1016.6
20260507035112 23 47 0.0 14.5 0.00 0.00 0.00 75 1016.5
20260507034613 24 37 6.4 9.7 0.00 0.00 0.00 75 1016.6
20260507034343 24 28 3.2 17.7 0.00 0.00 0.00 75 1016.6
20260507033619 24 359 0.0 14.5 0.00 0.00 0.00 73 1016.3
20260507033613 24 34 0.0 17.7 0.00 0.00 0.00 74 1016.6
20260507032613 24 30 0.0 12.9 0.00 0.00 0.00 74 1016.2
20260507032112 24 11 3.2 14.5 0.00 0.00 0.00 73 1016.2
20260507031612 24 358 0.0 14.5 0.00 0.00 0.00 74 1016.5
20260507031344 24 11 9.7 12.9 0.00 0.00 0.00 73 1016.3
20260507030613 24 345 0.0 14.5 0.00 0.00 0.00 74 1016.3
20260507025549 24 6 0.0 17.7 0.00 0.00 0.00 74 1016.2
20260507025321 24 29 0.0 9.7 0.00 0.00 0.00 74 1016.3
20260507024537 24 28 0.0 14.5 0.00 0.00 0.00 75 1016.1
20260507024037 24 350 0.0 17.7 0.00 0.00 0.00 75 1016.0
20260507023536 24 347 0.0 17.7 0.00 0.00 0.00 75 1016.0
20260507023037 24 356 12.9 17.7 0.00 0.00 0.00 74 1016.1
20260507022537 24 329 0.0 14.5 0.00 0.00 0.00 75 1016.1
20260507022036 24 353 0.0 14.5 0.00 0.00 0.00 75 1016.2
20260507021807 24 12 0.0 14.5 0.00 0.00 0.00 75 1016.3
20260507021037 24 44 9.7 17.7 0.00 0.00 0.00 75 1016.0
20260507020537 24 345 1.6 17.7 0.00 0.00 0.00 74 1016.0
20260507020037 24 7 0.0 16.1 0.00 0.00 0.00 74 1016.1
20260507015537 25 16 0.0 16.1 0.00 0.00 0.00 74 1016.0
20260507015307 25 355 4.8 16.1 0.00 0.00 0.00 75 1016.2
20260507014808 25 36 6.4 20.9 0.00 0.00 0.00 75 1016.1
20260507014025 25 22 1.6 20.9 0.00 0.00 0.00 73 1016.2
20260507013757 25 342 9.7 14.5 0.00 0.00 0.00 74 1016.0
20260507013026 25 26 0.0 14.5 0.00 0.00 0.00 75 1015.9
20260507012524 25 345 0.0 17.7 0.00 0.00 0.00 74 1016.0
20260507012024 25 23 0.0 17.7 0.00 0.00 0.00 74 1016.1
20260507011526 25 36 0.0 20.9 0.00 0.00 0.00 73 1016.0
20260507011025 25 329 4.8 20.9 0.00 0.00 0.00 73 1016.0
20260507010513 25 352 0.0 14.5 0.00 0.00 0.00 74 1015.9
20260507010013 25 340 6.4 17.7 0.00 0.00 0.00 74 1016.1
20260507005744 25 35 0.0 17.7 0.00 0.00 0.00 73 1016.4
20260507005244 25 15 1.6 16.1 0.00 0.00 0.00 72 1016.2
20260507004513 25 2 0.0 16.1 0.00 0.00 0.00 73 1016.4
20260507004013 25 30 4.8 16.1 0.00 0.00 0.00 73 1016.4
20260507003512 25 19 0.0 16.1 0.00 0.00 0.00 72 1016.5
20260507003243 25 34 0.0 17.7 0.00 0.00 0.00 72 1016.5
20260507003119 25 21 0.0 17.7 0.00 0.00 0.00 73 1016.7
20260507002243 25 22 0.0 14.5 0.00 0.00 0.00 73 1016.8
20260507001745 25 338 9.7 16.1 0.00 0.00 0.00 73 1016.8
20260507001012 25 337 0.0 16.1 0.00 0.00 0.00 73 1016.6
20260507000513 25 12 6.4 14.5 0.00 0.00 0.00 74 1016.7
20260507000013 25 12 8.0 14.5 0.00 0.00 0.00 73 1016.8
20260506235512 25 11 0.0 16.1 0.00 0.00 0.00 73 1016.7
20260506235014 25 8 0.0 17.7 0.00 0.00 0.00 74 1016.8
20260506234512 25 17 0.0 17.7 0.00 0.00 0.00 73 1016.9
20260506234012 26 322 0.0 14.5 0.00 0.00 0.00 73 1016.8
20260506233519 26 7 0.0 16.1 0.00 0.00 0.00 72 1016.9
20260506233013 26 15 9.7 16.1 0.00 0.00 0.00 73 1016.9
20260506232744 26 34 0.0 14.5 0.00 0.00 0.00 73 1016.9
20260506232013 26 37 0.0 14.5 0.00 0.00 0.00 72 1017.0
20260506231512 26 354 9.7 16.1 0.00 0.00 0.00 72 1017.0
20260506231232 26 324 0.0 16.1 0.00 0.00 0.00 72 1016.9
20260506230501 26 20 12.9 14.5 0.00 0.00 0.00 73 1017.0
20260506230231 26 1 6.4 16.1 0.00 0.00 0.00 73 1017.0
20260506230107 25 14 4.8 16.1 0.00 0.00 0.00 73 1016.9
20260506225001 25 12 4.8 16.1 0.00 0.00 0.00 74 1016.9
20260506224502 25 354 0.0 16.1 0.00 0.00 0.00 75 1016.9
20260506224001 25 34 8.0 24.1 0.00 0.00 0.00 75 1016.9
20260506223502 25 346 1.6 24.1 0.00 0.00 0.00 77 1016.8
20260506222953 25 331 4.8 17.7 0.00 0.00 0.00 77 1016.8
20260506222442 25 0.0 0.0 0.00 0.00 0.00 76